Home   Weather   Santa Clarita   Past weeks

Flag for USA Past Weather in Santa Clarita, California, USA — Yesterday and Last 2 Weeks

58 °F


Feels Like: 58 °F
Forecast: 57 / 83 °F
Wind: No wind

Location: Van Nuys Airport

Current Time: Oct 22, 2016 at 9:08:07 AM

Latest Report: Oct 22, 2016 at 7:51 AM

Visibility: 10 mi

Pressure: 29.88 "Hg

Humidity: 51%

Dew Point: 40 °F

Location of Santa ClaritaLocation

Past Weather in Santa Clarita — Graph


Santa Clarita Temperature Yesterday

Maximum temperature yesterday: 93 °F (at 12:51 PM)
Minimum temperature yesterday: 59 °F (at 6:51 AM)
Average temperature yesterday: 76 °F

High & Low Weather Summary for the Past Weeks

High94 °F (Oct 9, 1:51 PM)100% (Oct 14, 3:51 AM)30.08 "Hg (Oct 14, 3:51 AM)
Low54 °F (Oct 13, 5:51 AM)5% (Oct 20, 12:51 PM)29.79 "Hg (Oct 21, 5:51 PM)
Average71 °F49%29.93 "Hg
* Reported Oct 7 7:51 AM — Oct 22 7:51 AM, Santa Clarita, Weather by CustomWeather, © 2016

Note: Actual official high and low records may vary slightly from our data, if they occured in-between our weather recording intervals... More about our weather records


Santa Clarita Weather History for the Previous 24 Hours

Scroll right to see more
Time TempWeatherWind HumidityBarometerVisibility
7:51 AM
Sat, Oct 22
58 °FSunny.No wind51%29.88 "Hg10 mi
6:51 AM55 °FClear.No wind57%29.87 "Hg10 mi
5:51 AM56 °FClear.No wind55%29.85 "Hg10 mi
4:51 AM59 °FClear.No wind48%29.85 "Hg10 mi
3:51 AM58 °FClear.No wind50%29.85 "Hg10 mi
2:51 AM61 °FClear.No wind46%29.85 "Hg10 mi
1:51 AM62 °FClear.No wind44%29.85 "Hg10 mi
12:51 AM64 °FClear.No wind41%29.85 "Hg10 mi
11:51 PM
Fri, Oct 21
66 °FClear.No wind37%29.86 "Hg10 mi
10:51 PM68 °FClear.No wind35%29.86 "Hg10 mi
9:51 PM72 °FClear.3 mph31%29.85 "Hg10 mi
8:51 PM74 °FClear.No wind22%29.83 "Hg10 mi
7:51 PM77 °FClear.5 mph15%29.82 "Hg10 mi
6:51 PM82 °FClear.No wind12%29.80 "Hg10 mi
5:51 PM85 °FSunny.7 mph10%29.79 "Hg10 mi
4:51 PM90 °FSunny.7 mph7%29.79 "Hg10 mi
3:51 PM92 °FSunny.9 mph6%29.80 "Hg10 mi
2:51 PM93 °FSunny.10 mph6%29.80 "Hg10 mi
1:51 PM93 °FSunny.10 mph6%29.82 "Hg10 mi
12:51 PM93 °FSunny.9 mph6%29.84 "Hg10 mi
11:51 AM91 °FSunny.5 mph6%29.86 "Hg10 mi
10:51 AM85 °FSunny.No wind10%29.88 "Hg10 mi
9:51 AM77 °FSunny.No wind16%29.89 "Hg10 mi
Weather by CustomWeather, © 2016

See weather overviewHow to use our weather pages